SCP
0 0 0 0 0 0 0 0 0 0 0 0 0 0 0 0 0 0 0 0 0 0 0 0 0 0 0 0 0 0 0 0 0 0 0 0 0 0 0 0 0 0 0
0 0 0 0 0 0 0 0 0 0 0 0 0 0 0 0 0 0 0 0 0 0 0 0 0 0 0 0 0 0 0 0 0 0 0 0 0 0 0 0 0 0 0
0 0 0 0 0 0 0 0 0 0 0 0 0 0 0 0 0 0 0 0 0 0 0 0 0 0 0 0 0 0 0 0 0 0 0 0 0 0 0 0 0 0 0
0 0 0 0 0 0 0 0 0 0 0 0 0 0 0 0 0 0 0 0 0 0 0 0 0 0 0 0 0 0 0 0 0 0 0 0 0 0 0 0 0 0 0
0 0 0 0 0 0 0 0 0 0 0 0 0 0 0 0 0 0 0 0 0 0 0 0 0 0 0 0 0 0 0 0 0 0 0 0 0 0 0 0 0 0 0
0 0 0 0 0 0 0 0 0 0 0 0 0 0 0 0 0 0 0 0 0 0 0 0 0 0 0 0 0 0 0 0 0 0 0 0 0 0 0 0 0 0 0
0 0 0 0 0 0 0 0 0 0 0 0 0 0 0 0 0 0 0 0 0 0 0 0 0 0 0 0 0 0 0 0 0 0 0 0 0 0 0 0 0 0 0
0 0 0 0 0 0 0 0 0 0 0 0 0 0 0 0 0 0 0 0 0 0 0 0 0 0 0 0 0 0 0 0 0 0 0 0 0 0 0 0 0 0 0
0 0 0 0 0 0 0 0 0 0 0 0 0 0 0 0 0 0 0 0 0 0 0 0 0 0 0 0 0 0 0 0 0 0 0 0 0 0 0 0 0 0 0
0 0 0 0 0 0 0 0 0 0 0 0 0 0 0 0 0 0 0 0 0 0 0 0 0 0 0 0 0 0 0 0 0 0 0 0 0 0 0 0 0 0 0
0 0 0 0 0 0 0 0 0 0 0 0 0 0 0 0 0 0 0 0 0 0 0 0 0 0 0 0 0 0 0 0 0 0 0 0 0 0 0 0 0 0 0
0 0 0 0 0 0 0 0 0 0 0 0 0 0 0 0 0 0 0 0 0 0 0 0 0 0 0 0 0 0 0 0 0 0 0 0 0 0 0 0 0 0 0
0 0 0 0 0 0 0 0 0 0 0 0 0 0 0 0 0 0 0 0 0 0 0 0 0 0 0 0 0 0 0 0 0 0 0 0 0 0 0 0 0 0 0
0 0 0 0 0 0 0 0 0 0 0 0 0 0 0 0 0 0 0 0 0 0 0 0 0 0 0 0 0 0 0 0 0 0 0 0 0 0 0 0 0 0 0
0 0 0 0 0 0 0 0 0 0 0 0 0 0 0 0 0 0 0 0 0 0 0 0 0 0 0 0 0 0 0 0 0 0 0 0 0 0 0 0 0 0 0
0 0 0 0 0 0 0 0 0 0 0 0 0 0 0 0 0 0 0 0 0 0 0 0 0 0 0 0 0 0 0 0 0 0 0 0 0 0 0 0 0 0 0
0 0 0 0 0 0 0 0 0 0 0 0 0 0 0 0 0 0 0 0 0 0 0 0 0 0 0 0 0 0 0 0 0 0 0 0 0 0 0 0 0 0 0
0 0 0 0 0 0 0 0 0 0 0 0 0 0 0 0 0 0 0 0 0 0 0 0 0 0 0 0 0 0 0 0 0 0 0 0 0 0 0 0 0 0 0
0 0 0 0 0 0 0 0 0 0 0 0 0 0 0 0 0 0 0 0 0 0 0 0 0 0 0 0 0 0 0 0 0 0 0 0 0 0 0 0 0 0 0
0 0 0 0 0 0 0 0 0 0 0 0 0 0 0 0 0 0 0 0 0 0 0 0 0 0 0 0 0 0 0 0 0 0 0 0 0 0 0 0 0 0 0
0 0 0 0 0 0 0 0 0 0 0 0 0 0 0 0 0 0 0 0 0 0 0 0 0 0 0 0 0 0 0 0 0 0 0 0 0 0 0 0 0 0 0
0 0 0 0 0 0 0 0 0 0 0 0 0 0 0 0 0 0 0 0 0 0 0 0 0 0 0 0 0 0 0 0 0 0 0 0 0 0 0 0 0 0 0
0 0 0 0 0 0 0 0 0 0 0 0 0 0 0 0 0 0 0 0 0 0 0 0 0 0 0 0 0 0 0 0 0 0 0 0 0 0 0 0 0 0 0
0 0 0 0 0 0 0 0 0 0 0 0 0 0 0 0 0 0 0 0 0 0 0 0 0 0 0 0 0 0 0 0 0 0 0 0 0 0 0 0 0 0 0
0 0 0 0 0 0 0 0 0 0 0 0 0 0 0 0 0 0 0 0 0 0 0 0 0 0 0 0 0 0 0 0 0 0 0 0 0 0 0 0 0 0 0
0 0 0 0 0 0 0 0 0 0 0 0 0 0 0 0 0 0 0 0 0 0 0 0 0 0 0 0 0 0 0 0 0 0 0 0 0 0 0 0 0 0 0
Wind_Speed_500mb
50 41 34 30 28 27 28 29 35 42 45 47 48 47 44 39 36 31 29 24 20 22 20 20 18 14 10 9 8 9 11 12 16 9 14 11 8 10 13 15 19 24 32
58 49 40 37 35 33 34 40 44 45 49 48 48 47 44 44 40 39 33 31 27 24 21 19 17 15 12 11 10 10 13 16 17 16 8 5 6 6 9 14 24 34 42
72 57 47 45 42 40 42 50 56 55 52 51 51 52 50 49 46 43 41 36 30 27 22 18 14 11 8 8 11 15 17 22 22 22 14 4 2 27 15 22 31 42 47
71 56 51 52 51 48 52 56 55 54 52 51 51 52 51 53 52 48 43 39 31 25 20 14 10 7 7 10 14 19 23 22 25 24 25 21 21 15 21 34 45 48 52
79 66 59 57 57 60 63 61 58 57 56 53 51 52 54 57 55 50 44 38 32 24 17 13 9 8 12 17 20 21 22 25 24 23 20 18 17 19 29 39 55 55 54
77 65 58 62 67 67 67 66 65 61 57 57 56 56 59 59 56 50 42 36 28 21 17 13 9 9 12 14 18 21 20 23 26 25 24 24 24 26 30 41 53 58 61
78 71 71 74 76 76 74 70 67 65 63 63 61 57 54 50 46 43 37 32 28 25 19 12 7 5 8 11 14 15 19 19 19 19 21 21 20 22 26 34 45 58 68
80 78 75 77 78 78 76 74 72 71 70 66 59 57 53 48 44 37 33 29 26 22 15 8 4 1 4 7 10 13 16 17 17 17 17 17 18 22 27 32 40 54 63
86 81 74 75 78 81 80 77 77 75 70 65 62 59 54 50 43 38 34 30 26 18 12 10 8 4 1 4 9 13 15 15 16 16 17 18 21 24 27 32 35 37 46
80 79 76 78 79 80 81 81 78 75 71 66 62 59 55 49 42 38 35 30 23 18 16 14 12 8 2 4 9 13 14 15 16 18 19 22 24 26 30 33 34 34 39
83 80 78 78 82 83 85 84 81 77 73 68 63 58 55 51 46 42 36 29 26 24 22 20 15 9 3 6 11 12 13 15 18 21 24 27 29 31 34 35 36 40 45
78 80 80 84 88 90 89 89 86 82 76 70 65 61 57 54 49 43 36 34 32 30 27 21 16 11 5 7 10 12 13 17 21 25 28 30 33 36 38 39 42 47 50
73 77 83 90 94 94 94 92 88 83 76 73 69 65 61 56 50 43 41 39 36 34 29 25 21 14 8 8 10 11 14 18 23 26 29 33 38 40 42 45 48 51 55
75 79 85 93 98 98 98 95 91 85 81 77 72 67 64 58 50 47 45 42 39 37 34 30 26 19 15 13 13 14 15 20 24 27 31 36 41 44 46 50 52 56 59
76 86 92 97 99 102 102 98 92 90 85 80 75 70 64 58 54 53 49 46 45 42 39 37 30 26 22 21 20 20 22 24 28 31 36 39 43 47 50 54 57 59 59
81 88 89 91 98 105 107 102 98 95 89 84 78 72 66 64 61 57 54 53 50 47 45 39 36 33 30 28 28 31 31 32 34 37 39 42 45 47 51 55 57 57 55
82 87 94 94 95 98 103 104 102 96 91 85 81 75 70 68 63 60 58 56 55 52 48 46 43 39 35 36 38 38 39 41 41 43 46 48 48 49 53 55 56 55 52
80 82 83 84 83 84 86 89 89 90 89 89 82 75 75 69 65 62 59 60 61 57 54 51 46 43 43 44 44 44 47 48 48 50 51 51 52 52 54 57 58 57 60
76 76 75 71 70 67 64 67 69 76 84 85 81 78 73 68 67 59 70 65 62 59 59 54 50 49 48 47 48 50 53 54 54 54 54 54 57 54 54 56 57 60 64
52 54 57 55 52 46 49 56 59 65 76 80 76 69 64 58 70 68 65 61 58 57 56 55 54 53 50 50 53 53 58 59 56 57 58 59 59 59 55 48 53 64 67
37 36 41 44 33 42 47 54 60 63 62 61 61 60 60 58 56 57 58 55 55 55 56 57 58 57 55 55 57 58 60 60 60 62 62 61 59 58 54 42 49 64 59
40 42 46 42 39 41 44 47 45 40 43 46 47 45 46 49 50 50 50 53 55 57 59 60 61 61 61 64 63 60 57 58 65 66 63 62 61 62 56 42 54 53 59
35 36 35 39 37 35 33 33 29 32 34 37 39 41 43 45 44 46 47 51 54 57 59 61 62 64 68 69 62 59 57 58 62 65 65 64 64 52 46 54 59 61 61
36 36 33 32 35 33 28 24 23 25 29 33 37 40 44 43 43 47 50 54 57 58 59 61 66 68 69 64 60 57 57 60 62 61 62 62 62 57 57 62 58 60 60
31 31 33 33 31 28 25 22 23 26 30 34 37 43 47 47 49 51 53 54 56 57 61 63 63 65 68 63 61 61 60 61 61 60 65 66 65 62 60 60 61 63 58
35 37 35 28 26 23 22 24 27 30 31 35 39 43 49 53 53 53 54 57 60 62 63 64 65 60 60 57 56 57 61 59 51 60 69 76 73 67 66 63 67 65 58
Wind_Direction_500mb
222 222 226 220 215 208 198 180 168 166 172 175 176 178 181 182 186 192 185 180 171 152 147 148 141 131 133 113 86 57 48 50 57 52 85 86 42 22 360 353 357 351 349
214 215 216 211 207 205 187 172 167 171 175 179 180 182 181 179 188 181 176 166 160 149 140 133 128 115 87 77 62 38 23 31 38 47 99 155 196 12 308 326 334 339 339
214 210 208 204 198 195 182 173 172 177 178 182 182 182 181 180 173 167 162 154 148 140 134 127 111 101 81 56 44 35 26 32 29 24 30 11 334 324 264 294 326 332 339
212 213 207 201 195 188 179 181 179 180 182 185 188 192 187 176 166 161 157 150 147 144 136 128 114 101 76 54 38 33 28 27 35 30 26 12 359 349 320 314 330 339 341
207 205 207 203 192 188 186 186 185 187 189 190 192 188 182 172 163 160 157 155 150 147 141 131 115 81 57 43 34 25 17 10 12 16 21 11 3 348 336 329 333 332 341
201 204 205 199 194 192 191 191 191 192 191 187 185 185 181 174 166 163 163 158 157 154 153 141 112 72 50 34 20 13 10 10 11 11 6 358 357 349 344 333 333 336 340
197 198 198 198 195 196 195 195 194 191 186 181 180 183 183 178 174 171 171 169 167 164 159 142 111 64 21 14 9 3 5 5 1 0 357 357 353 346 341 335 333 336 336
201 202 203 201 197 197 196 195 193 189 183 182 184 181 182 182 177 176 175 174 175 169 159 152 158 133 15 9 5 358 355 354 354 355 353 351 341 339 335 335 335 334 333
199 202 204 203 200 198 196 194 189 188 186 186 185 183 185 186 184 182 183 185 179 172 168 180 192 195 63 15 354 348 350 354 351 347 344 337 336 333 329 328 331 333 328
201 203 205 203 201 199 196 192 191 190 189 189 189 190 189 189 192 194 193 188 183 185 190 200 211 210 206 346 349 353 351 348 343 342 336 332 328 324 320 323 325 325 322
205 205 206 205 202 198 196 193 193 193 192 191 191 193 193 196 198 199 196 193 195 201 210 212 206 202 243 336 346 349 349 341 339 335 332 326 322 319 316 315 317 319 321
208 208 207 205 201 200 198 198 197 196 197 196 197 198 201 202 202 201 201 203 207 212 213 211 209 212 259 324 334 342 341 342 335 332 323 318 316 312 312 314 315 314 316
205 208 209 208 205 203 203 202 201 200 199 201 202 203 205 206 205 204 208 212 214 216 215 215 218 225 251 289 310 319 329 335 334 326 321 316 312 308 308 309 309 310 311
209 210 211 212 210 208 207 206 205 205 204 205 206 208 210 210 210 213 215 217 218 221 221 222 224 231 245 269 287 295 306 315 319 323 322 316 307 306 306 306 307 308 311
212 216 215 214 213 212 213 212 211 210 209 210 210 212 214 214 214 217 220 220 223 224 225 226 230 237 249 263 272 282 287 293 304 311 313 310 306 305 305 306 308 308 310
223 221 218 217 216 216 217 216 215 215 214 214 216 216 216 218 220 222 223 225 226 227 231 234 238 244 253 262 270 272 277 286 296 301 303 304 303 304 303 303 305 306 308
226 222 221 220 220 221 221 221 220 219 218 219 219 219 221 223 225 227 227 230 232 233 235 239 242 250 260 268 270 269 275 280 287 293 297 300 304 305 304 303 302 301 302
226 222 220 222 224 224 225 226 226 227 225 225 223 223 225 226 229 230 233 239 235 236 239 243 248 255 263 268 272 273 275 280 284 287 292 298 303 304 302 301 300 302 308
229 224 222 218 220 223 227 229 229 232 228 227 226 226 228 231 234 238 244 237 236 239 243 246 253 261 265 269 273 274 276 277 280 285 290 295 299 302 299 297 300 301 301
228 215 215 215 211 213 223 227 230 231 228 227 229 230 232 240 244 241 239 239 242 245 247 252 257 262 267 267 270 272 274 275 280 284 288 292 298 299 300 293 296 296 300
182 189 196 200 215 218 221 224 226 227 229 229 229 230 236 241 242 242 242 243 245 247 250 254 258 262 265 266 267 268 270 277 280 282 286 290 294 293 292 284 282 283 297
184 190 195 206 213 214 214 220 226 230 229 229 231 232 235 237 238 237 238 240 243 247 251 254 259 263 264 265 265 267 270 275 278 282 285 289 292 293 292 281 270 277 291
184 187 191 188 190 194 197 198 195 203 212 219 225 230 233 230 226 230 235 239 243 248 254 257 263 266 266 266 268 270 271 273 275 281 286 290 293 288 276 274 278 285 295
175 175 174 175 172 167 165 170 188 206 216 226 230 233 227 228 235 239 242 244 247 252 257 262 265 268 272 272 269 271 273 275 276 282 284 284 281 277 278 283 287 292 299
164 167 166 163 163 170 180 195 213 225 231 235 238 238 234 239 243 247 251 254 257 260 262 264 265 265 266 270 271 272 275 278 279 278 278 279 279 278 279 281 285 291 296
167 164 167 178 185 196 214 226 236 238 240 242 243 245 247 249 252 254 257 258 259 261 264 267 268 267 270 274 276 278 282 283 286 288 289 289 286 283 286 284 286 290 293
Wind_Speed_850mb
50 41 34 30 28 27 28 29 35 42 45 47 48 47 44 39 36 31 29 24 20 22 20 20 18 14 10 9 8 9 11 12 16 9 14 11 8 10 13 15 19 24 32
58 49 40 37 35 33 34 40 44 45 49 48 48 47 44 44 40 39 33 31 27 24 21 19 17 15 12 11 10 10 13 16 17 16 8 5 6 6 9 14 24 34 42
72 57 47 45 42 40 42 50 56 55 52 51 51 52 50 49 46 43 41 36 30 27 22 18 14 11 8 8 11 15 17 22 22 22 14 4 2 27 15 22 31 42 47
71 56 51 52 51 48 52 56 55 54 52 51 51 52 51 53 52 48 43 39 31 25 20 14 10 7 7 10 14 19 23 22 25 24 25 21 21 15 21 34 45 48 52
79 66 59 57 57 60 63 61 58 57 56 53 51 52 54 57 55 50 44 38 32 24 17 13 9 8 12 17 20 21 22 25 24 23 20 18 17 19 29 39 55 55 54
77 65 58 62 67 67 67 66 65 61 57 57 56 56 59 59 56 50 42 36 28 21 17 13 9 9 12 14 18 21 20 23 26 25 24 24 24 26 30 41 53 58 61
78 71 71 74 76 76 74 70 67 65 63 63 61 57 54 50 46 43 37 32 28 25 19 12 7 5 8 11 14 15 19 19 19 19 21 21 20 22 26 34 45 58 68
80 78 75 77 78 78 76 74 72 71 70 66 59 57 53 48 44 37 33 29 26 22 15 8 4 1 4 7 10 13 16 17 17 17 17 17 18 22 27 32 40 54 63
86 81 74 75 78 81 80 77 77 75 70 65 62 59 54 50 43 38 34 30 26 18 12 10 8 4 1 4 9 13 15 15 16 16 17 18 21 24 27 32 35 37 46
80 79 76 78 79 80 81 81 78 75 71 66 62 59 55 49 42 38 35 30 23 18 16 14 12 8 2 4 9 13 14 15 16 18 19 22 24 26 30 33 34 34 39
83 80 78 78 82 83 85 84 81 77 73 68 63 58 55 51 46 42 36 29 26 24 22 20 15 9 3 6 11 12 13 15 18 21 24 27 29 31 34 35 36 40 45
78 80 80 84 88 90 89 89 86 82 76 70 65 61 57 54 49 43 36 34 32 30 27 21 16 11 5 7 10 12 13 17 21 25 28 30 33 36 38 39 42 47 50
73 77 83 90 94 94 94 92 88 83 76 73 69 65 61 56 50 43 41 39 36 34 29 25 21 14 8 8 10 11 14 18 23 26 29 33 38 40 42 45 48 51 55
75 79 85 93 98 98 98 95 91 85 81 77 72 67 64 58 50 47 45 42 39 37 34 30 26 19 15 13 13 14 15 20 24 27 31 36 41 44 46 50 52 56 59
76 86 92 97 99 102 102 98 92 90 85 80 75 70 64 58 54 53 49 46 45 42 39 37 30 26 22 21 20 20 22 24 28 31 36 39 43 47 50 54 57 59 59
81 88 89 91 98 105 107 102 98 95 89 84 78 72 66 64 61 57 54 53 50 47 45 39 36 33 30 28 28 31 31 32 34 37 39 42 45 47 51 55 57 57 55
82 87 94 94 95 98 103 104 102 96 91 85 81 75 70 68 63 60 58 56 55 52 48 46 43 39 35 36 38 38 39 41 41 43 46 48 48 49 53 55 56 55 52
80 82 83 84 83 84 86 89 89 90 89 89 82 75 75 69 65 62 59 60 61 57 54 51 46 43 43 44 44 44 47 48 48 50 51 51 52 52 54 57 58 57 60
76 76 75 71 70 67 64 67 69 76 84 85 81 78 73 68 67 59 70 65 62 59 59 54 50 49 48 47 48 50 53 54 54 54 54 54 57 54 54 56 57 60 64
52 54 57 55 52 46 49 56 59 65 76 80 76 69 64 58 70 68 65 61 58 57 56 55 54 53 50 50 53 53 58 59 56 57 58 59 59 59 55 48 53 64 67
37 36 41 44 33 42 47 54 60 63 62 61 61 60 60 58 56 57 58 55 55 55 56 57 58 57 55 55 57 58 60 60 60 62 62 61 59 58 54 42 49 64 59
40 42 46 42 39 41 44 47 45 40 43 46 47 45 46 49 50 50 50 53 55 57 59 60 61 61 61 64 63 60 57 58 65 66 63 62 61 62 56 42 54 53 59
35 36 35 39 37 35 33 33 29 32 34 37 39 41 43 45 44 46 47 51 54 57 59 61 62 64 68 69 62 59 57 58 62 65 65 64 64 52 46 54 59 61 61
36 36 33 32 35 33 28 24 23 25 29 33 37 40 44 43 43 47 50 54 57 58 59 61 66 68 69 64 60 57 57 60 62 61 62 62 62 57 57 62 58 60 60
31 31 33 33 31 28 25 22 23 26 30 34 37 43 47 47 49 51 53 54 56 57 61 63 63 65 68 63 61 61 60 61 61 60 65 66 65 62 60 60 61 63 58
35 37 35 28 26 23 22 24 27 30 31 35 39 43 49 53 53 53 54 57 60 62 63 64 65 60 60 57 56 57 61 59 51 60 69 76 73 67 66 63 67 65 58
Wind_Direction_850mb
222 222 226 220 215 208 198 180 168 166 172 175 176 178 181 182 186 192 185 180 171 152 147 148 141 131 133 113 86 57 48 50 57 52 85 86 42 22 360 353 357 351 349
214 215 216 211 207 205 187 172 167 171 175 179 180 182 181 179 188 181 176 166 160 149 140 133 128 115 87 77 62 38 23 31 38 47 99 155 196 12 308 326 334 339 339
214 210 208 204 198 195 182 173 172 177 178 182 182 182 181 180 173 167 162 154 148 140 134 127 111 101 81 56 44 35 26 32 29 24 30 11 334 324 264 294 326 332 339
212 213 207 201 195 188 179 181 179 180 182 185 188 192 187 176 166 161 157 150 147 144 136 128 114 101 76 54 38 33 28 27 35 30 26 12 359 349 320 314 330 339 341
207 205 207 203 192 188 186 186 185 187 189 190 192 188 182 172 163 160 157 155 150 147 141 131 115 81 57 43 34 25 17 10 12 16 21 11 3 348 336 329 333 332 341
201 204 205 199 194 192 191 191 191 192 191 187 185 185 181 174 166 163 163 158 157 154 153 141 112 72 50 34 20 13 10 10 11 11 6 358 357 349 344 333 333 336 340
197 198 198 198 195 196 195 195 194 191 186 181 180 183 183 178 174 171 171 169 167 164 159 142 111 64 21 14 9 3 5 5 1 0 357 357 353 346 341 335 333 336 336
201 202 203 201 197 197 196 195 193 189 183 182 184 181 182 182 177 176 175 174 175 169 159 152 158 133 15 9 5 358 355 354 354 355 353 351 341 339 335 335 335 334 333
199 202 204 203 200 198 196 194 189 188 186 186 185 183 185 186 184 182 183 185 179 172 168 180 192 195 63 15 354 348 350 354 351 347 344 337 336 333 329 328 331 333 328
201 203 205 203 201 199 196 192 191 190 189 189 189 190 189 189 192 194 193 188 183 185 190 200 211 210 206 346 349 353 351 348 343 342 336 332 328 324 320 323 325 325 322
205 205 206 205 202 198 196 193 193 193 192 191 191 193 193 196 198 199 196 193 195 201 210 212 206 202 243 336 346 349 349 341 339 335 332 326 322 319 316 315 317 319 321
208 208 207 205 201 200 198 198 197 196 197 196 197 198 201 202 202 201 201 203 207 212 213 211 209 212 259 324 334 342 341 342 335 332 323 318 316 312 312 314 315 314 316
205 208 209 208 205 203 203 202 201 200 199 201 202 203 205 206 205 204 208 212 214 216 215 215 218 225 251 289 310 319 329 335 334 326 321 316 312 308 308 309 309 310 311
209 210 211 212 210 208 207 206 205 205 204 205 206 208 210 210 210 213 215 217 218 221 221 222 224 231 245 269 287 295 306 315 319 323 322 316 307 306 306 306 307 308 311
212 216 215 214 213 212 213 212 211 210 209 210 210 212 214 214 214 217 220 220 223 224 225 226 230 237 249 263 272 282 287 293 304 311 313 310 306 305 305 306 308 308 310
223 221 218 217 216 216 217 216 215 215 214 214 216 216 216 218 220 222 223 225 226 227 231 234 238 244 253 262 270 272 277 286 296 301 303 304 303 304 303 303 305 306 308
226 222 221 220 220 221 221 221 220 219 218 219 219 219 221 223 225 227 227 230 232 233 235 239 242 250 260 268 270 269 275 280 287 293 297 300 304 305 304 303 302 301 302
226 222 220 222 224 224 225 226 226 227 225 225 223 223 225 226 229 230 233 239 235 236 239 243 248 255 263 268 272 273 275 280 284 287 292 298 303 304 302 301 300 302 308
229 224 222 218 220 223 227 229 229 232 228 227 226 226 228 231 234 238 244 237 236 239 243 246 253 261 265 269 273 274 276 277 280 285 290 295 299 302 299 297 300 301 301
228 215 215 215 211 213 223 227 230 231 228 227 229 230 232 240 244 241 239 239 242 245 247 252 257 262 267 267 270 272 274 275 280 284 288 292 298 299 300 293 296 296 300
182 189 196 200 215 218 221 224 226 227 229 229 229 230 236 241 242 242 242 243 245 247 250 254 258 262 265 266 267 268 270 277 280 282 286 290 294 293 292 284 282 283 297
184 190 195 206 213 214 214 220 226 230 229 229 231 232 235 237 238 237 238 240 243 247 251 254 259 263 264 265 265 267 270 275 278 282 285 289 292 293 292 281 270 277 291
184 187 191 188 190 194 197 198 195 203 212 219 225 230 233 230 226 230 235 239 243 248 254 257 263 266 266 266 268 270 271 273 275 281 286 290 293 288 276 274 278 285 295
175 175 174 175 172 167 165 170 188 206 216 226 230 233 227 228 235 239 242 244 247 252 257 262 265 268 272 272 269 271 273 275 276 282 284 284 281 277 278 283 287 292 299
164 167 166 163 163 170 180 195 213 225 231 235 238 238 234 239 243 247 251 254 257 260 262 264 265 265 266 270 271 272 275 278 279 278 278 279 279 278 279 281 285 291 296
167 164 167 178 185 196 214 226 236 238 240 242 243 245 247 249 252 254 257 258 259 261 264 267 268 267 270 274 276 278 282 283 286 288 289 289 286 283 286 284 286 290 293